This demonstration page uses our WeatherBlox Daily Observations layout. Learn more.

Left ArrowRight Arrow

Hourly Observations for September 13, 2021

Temp ( °F °C ) Dew Point ( °F °C ) Humidity (%) Winds ( mph kmh ) Pressure ( in mb ) Visibility ( mi km ) Precip ( " mm )
12:15 am 00:15 Clear 72 22 68 20 88 88 W 8 13 30.10 1019 10 16 N/A
12:35 am 00:35 Clear 72 22 68 20 88 88 W 7 11 30.10 1019 10 16 N/A
12:55 am 00:55 Clear 73 23 68 20 83 83 W 5 7 30.10 1019 10 16 N/A
1:15 am 01:15 Clear 72 22 68 20 88 88 W 5 7 30.10 1019 10 16 N/A
1:35 am 01:35 Clear 72 22 68 20 88 88 N N/A 30.10 1019 10 16 N/A
1:55 am 01:55 Clear 72 22 68 20 88 88 N N/A 30.10 1019 10 16 N/A
2:15 am 02:15 Clear 72 22 68 20 88 88 N N/A 30.10 1019 10 16 N/A
2:35 am 02:35 Clear 72 22 68 20 88 88 N N/A 30.10 1019 10 16 N/A
2:55 am 02:55 Clear 72 22 68 20 88 88 N N/A 30.10 1019 10 16 N/A
3:15 am 03:15 Clear 70 21 68 20 94 94 N N/A 30.11 1020 10 16 N/A
3:35 am 03:35 Clear 70 21 68 20 94 94 N N/A 30.11 1020 10 16 N/A
3:55 am 03:55 Clear 70 21 68 20 94 94 W 3 6 30.12 1020 10 16 N/A
4:15 am 04:15 Clear 70 21 68 20 94 94 SW 7 11 30.12 1020 10 16 N/A
4:35 am 04:35 Clear 70 21 68 20 94 94 N N/A 30.11 1020 10 16 N/A
4:55 am 04:55 Clear 70 21 68 20 94 94 SW 3 6 30.11 1020 10 16 N/A
5:15 am 05:15 Clear 72 22 68 20 88 88 S 3 6 30.11 1020 10 16 N/A
5:35 am 05:35 Clear 70 21 68 20 94 94 SSW 8 13 30.11 1020 10 16 N/A
5:55 am 05:55 Clear 70 21 68 20 94 94 SW 5 7 30.11 1020 10 16 N/A
6:15 am 06:15 Clear 72 22 68 20 88 88 SW 3 6 30.11 1020 10 16 N/A
6:35 am 06:35 Clear 72 22 66 19 83 83 SSW 6 9 30.12 1020 10 16 N/A
6:55 am 06:55 Sunny 72 22 66 19 83 83 W 7 11 30.12 1020 10 16 N/A
7:15 am 07:15 Sunny 70 21 66 19 88 88 SW 5 7 30.12 1020 10 16 N/A
7:35 am 07:35 Sunny 70 21 68 20 94 94 W 5 7 30.12 1020 10 16 N/A
8:15 am 08:15 Sunny 73 23 68 20 83 83 SSW 3 6 30.13 1020 10 16 N/A
8:35 am 08:35 Sunny 73 23 68 20 83 83 W 3 6 30.12 1020 10 16 N/A
8:55 am 08:55 Sunny 75 24 68 20 78 78 N N/A 30.12 1020 10 16 N/A
9:15 am 09:15 Sunny 77 25 70 21 79 79 WNW 3 6 30.12 1020 10 16 N/A
9:35 am 09:35 Sunny 79 26 68 20 70 70 W 5 7 30.12 1020 10 16 N/A
9:55 am 09:55 Sunny 81 27 68 20 66 66 WNW 3 6 30.12 1020 10 16 N/A
10:15 am 10:15 Sunny 81 27 68 20 66 66 N N/A 30.12 1020 10 16 N/A
10:35 am 10:35 Sunny 82 28 68 20 62 62 W 6 9 30.13 1020 10 16 N/A
10:55 am 10:55 Sunny 82 28 70 21 66 66 NW 5 7 30.12 1020 10 16 N/A
11:15 am 11:15 Sunny 82 28 68 20 62 62 WNW 8 13 30.13 1020 10 16 N/A
11:35 am 11:35 Sunny 82 28 70 21 66 66 WNW 10 17 30.12 1020 10 16 N/A
11:55 am 11:55 Sunny 84 29 70 21 62 62 NW 18 30 30.12 1020 10 16 N/A
12:15 pm 12:15 Sunny 84 29 70 21 62 62 NW 13 20 30.12 1020 10 16 N/A
12:35 pm 12:35 Sunny 84 29 70 21 62 62 NNW 15 24 30.12 1020 10 16 N/A
12:55 pm 12:55 Sunny 84 29 70 21 62 62 WNW 13 20 30.11 1020 10 16 N/A
1:15 pm 13:15 Partly Cloudy 86 30 70 21 59 59 WNW 12 19 30.11 1020 10 16 N/A
1:35 pm 13:35 Partly Cloudy 86 30 70 21 59 59 WNW 13 20 30.11 1020 10 16 N/A
1:55 pm 13:55 Partly Cloudy 86 30 70 21 59 59 NW 10 17 30.11 1020 10 16 N/A
2:15 pm 14:15 Partly Cloudy 86 30 72 22 62 62 WNW 14 22 30.10 1019 10 16 N/A
2:35 pm 14:35 Partly Cloudy 86 30 70 21 59 59 NW 12 19 30.10 1019 10 16 N/A
2:55 pm 14:55 Partly Cloudy 86 30 70 21 59 59 W 12 19 30.09 1019 10 16 N/A
3:15 pm 15:15 Partly Cloudy 86 30 70 21 59 59 NW 3 6 30.08 1019 10 16 N/A
3:35 pm 15:35 Partly Cloudy 86 30 70 21 59 59 WNW 12 19 30.08 1019 10 16 N/A
3:55 pm 15:55 Sunny 86 30 70 21 59 59 NNW 7 11 30.07 1018 10 16 N/A
4:15 pm 16:15 Sunny 86 30 70 21 59 59 WNW 9 15 30.07 1018 10 16 N/A
4:35 pm 16:35 Sunny 86 30 72 22 62 62 W 7 11 30.06 1018 10 16 N/A
4:55 pm 16:55 Sunny 86 30 72 22 62 62 W 5 7 30.07 1018 10 16 N/A
5:15 pm 17:15 Sunny 86 30 70 21 59 59 W 5 7 30.07 1018 10 16 N/A
5:35 pm 17:35 Sunny 86 30 70 21 59 59 W 3 6 30.06 1018 10 16 N/A
5:55 pm 17:55 Sunny 86 30 70 21 59 59 N N/A 30.06 1018 10 16 N/A
6:15 pm 18:15 Sunny 86 30 72 22 62 62 N N/A 30.06 1018 10 16 N/A
6:35 pm 18:35 Sunny 84 29 72 22 66 66 N N/A 30.06 1018 10 16 N/A
6:55 pm 18:55 Sunny 82 28 72 22 70 70 N N/A 30.06 1018 10 16 N/A
7:15 pm 19:15 Sunny 82 28 72 22 70 70 SSW 3 6 30.05 1018 10 16 N/A
7:35 pm 19:35 Clear 81 27 72 22 74 74 SSW 3 6 30.05 1018 10 16 N/A
7:55 pm 19:55 Clear 79 26 73 23 84 84 N N/A 30.05 1018 10 16 N/A
8:15 pm 20:15 Clear 77 25 73 23 89 89 N N/A 30.06 1018 10 16 N/A
8:35 pm 20:35 Clear 77 25 73 23 89 89 N N/A 30.08 1019 10 16 N/A
8:55 pm 20:55 Clear 77 25 72 22 83 83 N N/A 30.08 1019 10 16 N/A
9:15 pm 21:15 Clear 77 25 72 22 83 83 N N/A 30.08 1019 10 16 N/A
9:35 pm 21:35 Clear 75 24 72 22 89 89 N N/A 30.09 1019 10 16 N/A
9:55 pm 21:55 Clear 73 23 72 22 94 94 N N/A 30.09 1019 10 16 N/A
10:15 pm 22:15 Clear 73 23 72 22 94 94 N N/A 30.09 1019 10 16 N/A
10:35 pm 22:35 Clear 73 23 72 22 94 94 N N/A 30.09 1019 10 16 N/A
10:55 pm 22:55 Clear 72 22 72 22 100 100 N N/A 30.09 1019 10 16 N/A
11:15 pm 23:15 Clear 72 22 72 22 100 100 N N/A 30.09 1019 10 16 N/A
11:35 pm 23:35 Clear 72 22 70 21 94 94 N N/A 30.09 1019 10 16 N/A
11:55 pm 23:55 Clear 72 22 72 22 100 100 N N/A 30.09 1019 10 16 N/A

Powered by AerisWeather